カタログに戻る

SJ-11-07

運用中科学SSO
NORAD 40261·PAYLOAD·🇨🇳 China

打ち上げ Sep 28, 2014 から Jiuquan Satellite Launch Center

Loading…

次のパス (今後24時間)

TLE

最新Source: Space-Track

元期: Sep 14, 2026, 15:32 UTC

1 40261U 14059A   26257.64746198  .00000393  00000-0  84136-4 0  9990
2 40261  97.9864 324.2458 0009591 222.9297 137.1158 14.63809932638001

AllMySatでSJ-11-07をリアルタイム追跡

Download on the App Store